This is the latest recevied weather packets stored in our database for station/object W1LBM. If no packets are shown the sender has not sent any weather packets the latest 1 day(s).
| Time | Temp. | Humidity | Pressure | Rain* | Wind** | Luminosity | Snow |
|---|---|---|---|---|---|---|---|
| 1778041454 | 16.67° C | 71% | 1014.7 hPa | 0 mm | 1.34 m/s, 168° | 0 W/m² | - |
| 1778041152 | 17.22° C | 71% | 1014.6 hPa | 0 mm | 1.79 m/s, 148° | 0 W/m² | - |
| 1778040849 | 17.22° C | 70% | 1014.8 hPa | 0 mm | 0.89 m/s, 193° | 0 W/m² | - |
| 1778040546 | 16.67° C | 70% | 1014.7 hPa | 0 mm | 1.34 m/s, 206° | 0 W/m² | - |
| 1778040244 | 16.67° C | 70% | 1014.6 hPa | 0 mm | 0.89 m/s, 140° | 0 W/m² | - |
| 1778039939 | 16.67° C | 70% | 1014.5 hPa | 0 mm | 0.45 m/s, 161° | 0 W/m² | - |
| 1778039637 | 16.67° C | 69% | 1014.7 hPa | 0 mm | 0.45 m/s, 130° | 0 W/m² | - |
| 1778039334 | 16.67° C | 69% | 1014.7 hPa | 0 mm | 1.79 m/s, 188° | 0 W/m² | - |
| 1778039031 | 17.22° C | 69% | 1014.6 hPa | 0 mm | 0.45 m/s, 130° | 0 W/m² | - |
| 1778038728 | 17.22° C | 69% | 1014.5 hPa | 0 mm | 0.45 m/s, 180° | 0 W/m² | - |
| 1778038425 | 17.22° C | 68% | 1014.7 hPa | 0 mm | 2.24 m/s, 180° | 0 W/m² | - |
| 1778038122 | 17.22° C | 68% | 1014.4 hPa | 0 mm | 2.24 m/s, 182° | 0 W/m² | - |
| 1778037819 | 17.22° C | 67% | 1014.7 hPa | 0 mm | 0.89 m/s, 163° | 0 W/m² | - |
| 1778037516 | 17.22° C | 68% | 1014.5 hPa | 0 mm | 1.79 m/s, 176° | 0 W/m² | - |
| 1778037213 | 17.22° C | 67% | 1014.5 hPa | 0 mm | 0.89 m/s, 243° | 0 W/m² | - |
| 1778036911 | 17.22° C | 67% | 1014.4 hPa | 0 mm | 3.13 m/s, 203° | 0 W/m² | - |
| 1778036609 | 17.22° C | 67% | 1014.2 hPa | 0 mm | 1.79 m/s, 203° | 0 W/m² | - |
| 1778036305 | 17.22° C | 66% | 1014.3 hPa | 0 mm | 0.45 m/s, 157° | 0 W/m² | - |
| 1778036001 | 17.22° C | 66% | 1014.3 hPa | 0 mm | 0.45 m/s, 79° | 0 W/m² | - |
| 1778035699 | 17.22° C | 66% | 1014.4 hPa | 0 mm | 0.89 m/s, 176° | 0 W/m² | - |
| 1778035395 | 17.22° C | 67% | 1014.5 hPa | 0 mm | 1.34 m/s, 155° | 0 W/m² | - |
| 1778035091 | 17.22° C | 67% | 1014.4 hPa | 0 mm | 1.79 m/s, 182° | 0 W/m² | - |
| 1778034789 | 17.22° C | 67% | 1014.3 hPa | 0 mm | 0.45 m/s, 145° | 0 W/m² | - |
| 1778034485 | 17.22° C | 67% | 1014.4 hPa | 0 mm | 0.45 m/s, 169° | 0 W/m² | - |
| 1778034183 | 17.22° C | 67% | 1014.5 hPa | 0 mm | 0.89 m/s, 156° | 0 W/m² | - |
* Rain latest hour (hover to see other rain measurements)
** Current wind speed in m/s (hover to see current wind gust speed)